This is the latest recevied weather packets stored in our database for station/object SR9NLI. If no packets are shown the sender has not sent any weather packets the latest 1 day(s).
| Time | Temp. | Humidity | Pressure | Rain* | Wind** | Luminosity | Snow |
|---|---|---|---|---|---|---|---|
| 1777947191 | 10.56° C | 100% | 954.3 hPa | - | 1.34 m/s, 316° | - | - |
| 1777947068 | 10.56° C | 100% | 954.4 hPa | - | 0.89 m/s, 311° | - | - |
| 1777946945 | 10.56° C | 100% | 954.4 hPa | - | 0.89 m/s, 303° | - | - |
| 1777946884 | 10.56° C | 100% | 954.3 hPa | - | 0.89 m/s, 297° | - | - |
| 1777946822 | 10.56° C | 100% | 954.3 hPa | - | 0.89 m/s, 274° | - | - |
| 1777946698 | 10° C | 100% | 954.4 hPa | - | 0.89 m/s, 282° | - | - |
| 1777946575 | 10.56° C | 100% | 954.4 hPa | - | 0.89 m/s, 321° | - | - |
| 1777946515 | 10° C | 100% | 954.5 hPa | - | 0.89 m/s, 326° | - | - |
| 1777946453 | 10° C | 100% | 954.4 hPa | - | 0.89 m/s, 314° | - | - |
| 1777946329 | 10° C | 100% | 954.5 hPa | - | 0.89 m/s, 279° | - | - |
| 1777946206 | 8.89° C | 100% | 954.5 hPa | - | 0.89 m/s, 279° | - | - |
| 1777946145 | 8.89° C | 100% | 954.5 hPa | - | 0.89 m/s, 283° | - | - |
| 1777946083 | 8.89° C | 100% | 954.5 hPa | - | 0.89 m/s, 269° | - | - |
| 1777945960 | 9.44° C | 100% | 954.6 hPa | - | 0.45 m/s, 300° | - | - |
| 1777945838 | 8.89° C | 100% | 954.5 hPa | - | 0.89 m/s, 321° | - | - |
| 1777945777 | 8.89° C | 100% | 954.6 hPa | - | 1.34 m/s, 323° | - | - |
| 1777945715 | 9.44° C | 100% | 954.6 hPa | - | 0.89 m/s, 323° | - | - |
| 1777945591 | 10° C | 100% | 954.5 hPa | - | 0.45 m/s, 321° | - | - |
| 1777945468 | 10° C | 100% | 954.6 hPa | - | 0.89 m/s, 355° | - | - |
| 1777945408 | 10° C | 100% | 954.6 hPa | - | 0.89 m/s, 7° | - | - |
| 1777945346 | 10° C | 100% | 954.6 hPa | - | 0.89 m/s, 8° | - | - |
| 1777945222 | 10° C | 100% | 954.6 hPa | - | 0.89 m/s, 6° | - | - |
| 1777945099 | 10.56° C | 100% | 954.7 hPa | - | 0.89 m/s, 351° | - | - |
| 1777945038 | 10° C | 100% | 954.6 hPa | - | 0.89 m/s, 341° | - | - |
* Rain since midnight (hover to see other rain measurements)
** Current wind speed in m/s (hover to see current wind gust speed)